TimeCEST,TemperatureF,Dew PointF,Humidity,Sea Level PressureIn,VisibilityMPH,Wind Direction,Wind SpeedMPH,Gust SpeedMPH,PrecipitationIn,Events,Conditions,WindDirDegrees,DateUTC
12:25 AM,55.4,44.6,67,29.77,6.2,West,13.8,-,N/A,,Mostly Cloudy,260,2012-10-05 22:25:00
12:55 AM,53.6,46.4,77,29.77,6.2,WSW,13.8,-,N/A,,Drizzle,250,2012-10-05 22:55:00
1:25 AM,53.6,46.4,77,29.77,6.2,WSW,12.7,-,N/A,Rain,Light Rain Showers,250,2012-10-05 23:25:00
1:55 AM,51.8,48.2,88,29.77,6.2,WSW,10.4,-,N/A,Rain,Heavy Drizzle,240,2012-10-05 23:55:00
2:00 AM,52,47,79,29.78,8,WSW,8.9,,,Rain,Rain,240,2012-10-06 00:00:00
2:25 AM,51.8,48.2,88,29.77,6.2,SW,8.1,-,N/A,Rain,Light Rain,230,2012-10-06 00:25:00
2:55 AM,51.8,48.2,88,29.74,6.2,SW,6.9,-,N/A,Rain,Light Rain,220,2012-10-06 00:55:00
2:57 AM,51.8,48.2,88,29.74,6.2,SW,6.9,-,N/A,Rain,Light Rain,220,2012-10-06 00:57:00
3:02 AM,51.8,48.2,88,29.74,6.2,SW,8.1,-,N/A,Rain,Light Rain,220,2012-10-06 01:02:00
3:25 AM,51.8,48.2,88,29.77,5.6,SW,6.9,-,N/A,Rain,Rain,230,2012-10-06 01:25:00
3:27 AM,51.8,48.2,88,29.77,3.1,West,6.9,-,N/A,Rain,Rain Showers,260,2012-10-06 01:27:00
3:31 AM,50.0,48.2,94,29.77,3.1,West,6.9,-,N/A,Rain,Rain Showers,270,2012-10-06 01:31:00
3:37 AM,50.0,48.2,94,29.77,-9999.0,West,4.6,-,N/A,Rain,Rain,270,2012-10-06 01:37:00
3:55 AM,50.0,48.2,94,29.77,6.2,West,3.5,-,N/A,Rain,Light Rain,260,2012-10-06 01:55:00
3:57 AM,50.0,48.2,94,29.77,6.2,West,4.6,-,N/A,Rain,Light Rain,270,2012-10-06 01:57:00
4:01 AM,50.0,48.2,94,29.77,6.2,West,5.8,-,N/A,Rain,Rain,270,2012-10-06 02:01:00
4:25 AM,50.0,48.2,94,29.74,6.2,WNW,2.3,-,N/A,Rain,Light Rain,300,2012-10-06 02:25:00
4:29 AM,50.0,48.2,94,29.74,6.2,NW,1.2,-,N/A,Rain,Drizzle,310,2012-10-06 02:29:00
4:33 AM,50.0,48.2,94,29.74,4.3,NW,2.3,-,N/A,Rain,Rain,310,2012-10-06 02:33:00
4:37 AM,50.0,48.2,94,29.74,5.0,NW,1.2,-,N/A,Rain,Light Rain,310,2012-10-06 02:37:00
4:55 AM,50.0,48.2,94,29.74,6.2,WSW,1.2,-,N/A,Rain,Light Rain,240,2012-10-06 02:55:00
5:00 AM,50,47,87,29.75,6,SW,2.2,,,Rain,Light Rain,220,2012-10-06 03:00:00
5:06 AM,50.0,48.2,94,29.74,5.6,SSW,2.3,-,N/A,Rain,Light Rain,210,2012-10-06 03:06:00
5:10 AM,50.0,48.2,94,29.74,5.0,SSW,3.5,-,N/A,Rain,Light Rain,200,2012-10-06 03:10:00
5:19 AM,50.0,48.2,94,29.74,5.0,South,4.6,-,N/A,Rain,Light Rain,180,2012-10-06 03:19:00
5:25 AM,50.0,48.2,94,29.74,3.7,South,4.6,-,N/A,Rain,Light Rain Showers,180,2012-10-06 03:25:00
5:27 AM,50.0,48.2,94,29.74,5.6,South,5.8,-,N/A,Rain,Light Rain,180,2012-10-06 03:27:00
5:36 AM,50.0,48.2,94,29.74,4.3,South,4.6,-,N/A,Rain,Rain,180,2012-10-06 03:36:00
5:41 AM,50.0,48.2,94,29.71,5.6,South,2.3,-,N/A,Rain,Light Rain,190,2012-10-06 03:41:00
5:45 AM,50.0,48.2,94,29.71,5.6,SSW,2.3,-,N/A,Rain,Light Rain,200,2012-10-06 03:45:00
5:55 AM,50.0,48.2,94,29.71,6.2,SW,2.3,-,N/A,Rain,Light Rain,230,2012-10-06 03:55:00
6:02 AM,50.0,48.2,94,29.74,4.3,SW,3.5,-,N/A,Rain,Light Rain,230,2012-10-06 04:02:00
6:06 AM,50.0,48.2,94,29.74,3.7,SW,2.3,-,N/A,Rain,Light Rain,220,2012-10-06 04:06:00
6:25 AM,50.0,48.2,94,29.71,5.6,NNW,3.5,-,N/A,Rain,Light Rain,330,2012-10-06 04:25:00
6:31 AM,50.0,48.2,94,29.71,6.2,NW,4.6,-,N/A,Rain,Light Rain Showers,310,2012-10-06 04:31:00
6:43 AM,50.0,48.2,94,29.71,6.2,NW,4.6,-,N/A,Rain,Light Rain,320,2012-10-06 04:43:00
6:55 AM,50.0,48.2,94,29.71,6.2,NW,5.8,-,N/A,Rain,Light Rain,320,2012-10-06 04:55:00
6:57 AM,50.0,48.2,94,29.71,6.2,NW,5.8,-,N/A,Rain,Light Rain,320,2012-10-06 04:57:00
7:01 AM,50.0,48.2,94,29.71,6.2,NW,4.6,-,N/A,Rain,Light Rain,320,2012-10-06 05:01:00
7:09 AM,50.0,46.4,87,29.71,6.2,NW,4.6,-,N/A,Rain,Light Rain,310,2012-10-06 05:09:00
7:25 AM,48.2,46.4,93,29.71,6.2,WNW,4.6,-,N/A,Rain,Light Rain,300,2012-10-06 05:25:00
7:27 AM,48.2,46.4,93,29.71,6.2,WNW,4.6,-,N/A,Rain,Light Rain,300,2012-10-06 05:27:00
7:31 AM,48.2,46.4,93,29.71,6.2,WNW,3.5,-,N/A,Rain,Rain,300,2012-10-06 05:31:00
7:37 AM,48.2,46.4,93,29.71,6.2,WNW,3.5,-,N/A,Rain,Light Rain,300,2012-10-06 05:37:00
7:55 AM,50.0,46.4,87,29.71,6.2,NW,4.6,-,N/A,Rain,Light Rain,320,2012-10-06 05:55:00
8:00 AM,49,47,91,29.74,6,NW,6.7,,,Rain,Rain,310,2012-10-06 06:00:00
8:07 AM,50.0,46.4,87,29.71,6.2,NW,6.9,-,N/A,Rain,Light Rain,310,2012-10-06 06:07:00
8:25 AM,50.0,46.4,87,29.71,6.2,NW,8.1,-,N/A,Rain,Light Rain,320,2012-10-06 06:25:00
8:33 AM,50.0,46.4,87,29.74,6.2,NW,8.1,-,N/A,,Drizzle,320,2012-10-06 06:33:00
8:37 AM,50.0,46.4,87,29.74,3.7,NW,8.1,-,N/A,Rain,Light Rain,320,2012-10-06 06:37:00
8:45 AM,50.0,46.4,87,29.74,6.2,NW,10.4,-,N/A,,Drizzle,320,2012-10-06 06:45:00
8:55 AM,50.0,46.4,87,29.74,6.2,NW,9.2,-,N/A,Rain,Light Rain,320,2012-10-06 06:55:00
8:58 AM,50.0,46.4,87,29.74,6.2,NW,8.1,-,N/A,Rain,Light Rain Showers,320,2012-10-06 06:58:00
9:12 AM,50.0,46.4,87,29.74,6.2,NW,8.1,-,N/A,Rain,Light Rain,310,2012-10-06 07:12:00
9:16 AM,50.0,48.2,94,29.74,6.2,NW,8.1,-,N/A,Rain,Heavy Drizzle,310,2012-10-06 07:16:00
9:25 AM,50.0,46.4,87,29.74,6.2,NW,8.1,-,N/A,Rain,Light Rain,310,2012-10-06 07:25:00
9:28 AM,50.0,48.2,94,29.74,6.2,NW,6.9,-,N/A,Rain,Light Rain,310,2012-10-06 07:28:00
9:32 AM,50.0,48.2,94,29.74,6.2,NW,6.9,-,N/A,Rain,Light Rain,310,2012-10-06 07:32:00
9:36 AM,50.0,48.2,94,29.74,6.2,NW,6.9,-,N/A,Rain,Light Rain,310,2012-10-06 07:36:00
9:46 AM,50.0,48.2,94,29.74,6.2,NW,6.9,-,N/A,Rain,Light Rain,310,2012-10-06 07:46:00
9:55 AM,50.0,48.2,94,29.74,6.2,NW,6.9,-,N/A,Rain,Light Rain,310,2012-10-06 07:55:00
10:03 AM,50.0,48.2,94,29.74,6.2,NW,5.8,-,N/A,,Drizzle,320,2012-10-06 08:03:00
10:07 AM,51.8,48.2,88,29.74,6.2,NW,5.8,-,N/A,,Mostly Cloudy,320,2012-10-06 08:07:00
10:13 AM,51.8,48.2,88,29.74,6.2,NW,4.6,-,N/A,,Mostly Cloudy,310,2012-10-06 08:13:00
10:25 AM,51.8,48.2,88,29.77,6.2,NW,4.6,-,N/A,,Overcast,310,2012-10-06 08:25:00
10:55 AM,51.8,48.2,88,29.77,6.2,WNW,4.6,-,N/A,,Overcast,300,2012-10-06 08:55:00
10:56 AM,51.8,48.2,88,29.77,6.2,WNW,5.8,-,N/A,,Mostly Cloudy,300,2012-10-06 08:56:00
11:00 AM,53,48,78,29.78,22,WNW,6.7,,,Rain,Rain,300,2012-10-06 09:00:00
11:02 AM,53.6,48.2,82,29.77,6.2,WNW,5.8,-,N/A,,Mostly Cloudy,300,2012-10-06 09:02:00
11:06 AM,53.6,48.2,82,29.77,6.2,WNW,5.8,-,N/A,,Overcast,300,2012-10-06 09:06:00
11:25 AM,53.6,46.4,77,29.77,4.3,NW,5.8,-,N/A,Rain,Rain,310,2012-10-06 09:25:00
11:41 AM,51.8,48.2,88,29.80,6.2,NW,3.5,-,N/A,Rain,Light Rain,320,2012-10-06 09:41:00
11:55 AM,51.8,48.2,88,29.80,6.2,WNW,2.3,-,N/A,,Mostly Cloudy,300,2012-10-06 09:55:00
12:25 PM,53.6,50.0,88,29.80,6.2,WNW,4.6,-,N/A,,Overcast,290,2012-10-06 10:25:00
12:39 PM,55.4,51.8,88,29.80,6.2,WNW,5.8,-,N/A,,Mostly Cloudy,300,2012-10-06 10:39:00
12:44 PM,57.2,51.8,82,29.80,6.2,WNW,8.1,-,N/A,,Mostly Cloudy,300,2012-10-06 10:44:00
12:48 PM,55.4,48.2,77,29.83,6.2,NW,10.4,-,N/A,,Overcast,310,2012-10-06 10:48:00
12:55 PM,55.4,48.2,77,29.83,6.2,NW,11.5,-,N/A,,Mostly Cloudy,320,2012-10-06 10:55:00
12:57 PM,57.2,50.0,77,29.83,6.2,NW,10.4,-,N/A,,Mostly Cloudy,320,2012-10-06 10:57:00
1:25 PM,57.2,48.2,72,29.83,6.2,NW,11.5,-,N/A,,Mostly Cloudy,310,2012-10-06 11:25:00
1:53 PM,57.2,46.4,67,29.83,6.2,NW,11.5,-,N/A,,Partly Cloudy,310,2012-10-06 11:53:00
1:55 PM,57.2,48.2,72,29.83,6.2,NW,11.5,-,N/A,,Scattered Clouds,310,2012-10-06 11:55:00
2:00 PM,57,49,65,29.85,25,NW,11.2,,,,Partly Cloudy,310,2012-10-06 12:00:00
2:25 PM,57.2,48.2,72,29.86,6.2,WNW,11.5,-,N/A,,Partly Cloudy,300,2012-10-06 12:25:00
2:40 PM,57.2,46.4,67,29.86,6.2,NW,12.7,-,N/A,,Scattered Clouds,320,2012-10-06 12:40:00
2:47 PM,57.2,46.4,67,29.86,6.2,NW,11.5,-,N/A,,Partly Cloudy,320,2012-10-06 12:47:00
2:55 PM,57.2,46.4,67,29.86,6.2,NW,10.4,-,N/A,,Unknown,310,2012-10-06 12:55:00
3:25 PM,57.2,46.4,67,29.86,6.2,NW,11.5,-,N/A,,Partly Cloudy,320,2012-10-06 13:25:00
3:55 PM,57.2,46.4,67,29.89,6.2,WNW,9.2,-,N/A,,Scattered Clouds,300,2012-10-06 13:55:00
4:25 PM,57.2,46.4,67,29.89,6.2,WNW,12.7,-,N/A,,Scattered Clouds,290,2012-10-06 14:25:00
4:55 PM,57.2,46.4,67,29.89,6.2,West,12.7,-,N/A,,Partly Cloudy,280,2012-10-06 14:55:00
5:00 PM,56,46,60,29.91,22,WNW,11.2,,,,Scattered Clouds,290,2012-10-06 15:00:00
5:25 PM,55.4,46.4,72,29.89,6.2,WNW,10.4,-,N/A,,Partly Cloudy,290,2012-10-06 15:25:00
5:55 PM,55.4,44.6,67,29.92,6.2,WNW,10.4,-,N/A,,Partly Cloudy,290,2012-10-06 15:55:00
6:25 PM,53.6,44.6,72,29.92,6.2,WNW,8.1,-,N/A,,Unknown,300,2012-10-06 16:25:00
6:55 PM,53.6,42.8,67,29.92,6.2,WNW,8.1,-,N/A,,Partly Cloudy,300,2012-10-06 16:55:00
7:25 PM,51.8,42.8,71,29.92,6.2,WNW,5.8,-,N/A,,Partly Cloudy,290,2012-10-06 17:25:00
7:55 PM,51.8,42.8,71,29.95,6.2,WNW,5.8,-,N/A,,Unknown,300,2012-10-06 17:55:00
8:00 PM,51,42,63,29.95,28,WNW,6.7,,,,Partly Cloudy,300,2012-10-06 18:00:00
8:09 PM,51.8,42.8,71,29.95,6.2,WNW,5.8,-,N/A,,Partly Cloudy,300,2012-10-06 18:09:00
8:25 PM,50.0,42.8,76,29.95,6.2,WNW,5.8,-,N/A,,Unknown,300,2012-10-06 18:25:00
8:55 PM,51.8,42.8,71,29.95,6.2,WNW,5.8,-,N/A,,Partly Cloudy,300,2012-10-06 18:55:00
9:25 PM,51.8,44.6,76,29.95,6.2,WNW,6.9,-,N/A,,Scattered Clouds,290,2012-10-06 19:25:00
9:55 PM,51.8,42.8,71,29.95,6.2,WNW,6.9,-,N/A,,Unknown,300,2012-10-06 19:55:00
10:25 PM,50.0,42.8,76,29.95,6.2,WNW,5.8,-,N/A,,Mostly Cloudy,300,2012-10-06 20:25:00
10:55 PM,51.8,44.6,76,29.95,6.2,WNW,5.8,-,N/A,,Mostly Cloudy,300,2012-10-06 20:55:00
11:00 PM,52,44,66,29.98,28,WNW,6.7,,,,Overcast,290,2012-10-06 21:00:00
11:25 PM,53.6,44.6,72,29.98,6.2,WNW,4.6,-,N/A,,Overcast,290,2012-10-06 21:25:00
11:55 PM,51.8,44.6,76,29.98,6.2,WNW,5.8,-,N/A,,Mostly Cloudy,300,2012-10-06 21:55:00